sat.trackr.live / text

‹ back to catalog

GSAT0218 (GALILEO 22)

NORAD 43058 · 2017-079D

PAYLOAD ACTIVE UNKNOWN

§ Identity

Operator
Country
ESA
Launch date
2017-12-12
Launch site
FRGUI
Launch vehicle
Mass (kg)
RCS (m²)

Purposes: earth_obs, nav

External: N2YO · Heavens-Above · Gunter

§ Orbital elements

Epoch: 2026-09-09T15:05:12.557184Z

Period
844.70 min
Inclination
55.0533°
Eccentricity
0.0005102
Mean motion
1.70473915 rev/d
Perigee alt
23,207.1 km
Apogee alt
23,237.3 km
Semi-major
29,600.3 km
B*
0.0000e+0
RAAN
219.1792°
Arg perigee
283.6575°
Mean anomaly
76.2358°
Rev number
5,445

§ Raw data

GSAT0218 (GALILEO 22)1 43058U 17079D   26252.62861756  .00000000  00000+0  00000+0 0  99902 43058  55.0533 219.1792 0005102 283.6575  76.2358  1.70473915 54454

JSON: /api/v1/satellites/43058 · /tle

For live sub-satellite position, see the globe view (requires WebGL).

§ Visibility from observer

Set your observer location to see the next 7 days of passes ≥ 10°. The values pass through the URL so the page stays shareable.

No JS? Fill the form by hand. The geolocation button needs JavaScript.